Regional Weather Roundup
Issued by NWS

Home | Current Version | Previous Version | Graphics & Text | Print | Product List | Glossary On
Versions: 1 2 3 4 5 6 7 8 9 10 11 12 13 14 15 16 17 18 19 20 21 22 23 24 25 26 27
000
ASUS45 KBOU 280307
RWRCO

WEATHER ROUNDUP FOR COLORADO
NATIONAL WEATHER SERVICE DENVER/BOULDER CO
900 PM MDT SAT MAY 27 2017

NOTE: "FAIR" INDICATES FEW OR NO CLOUDS BELOW 12000 FEET WITH NO
SIGNIFICANT WEATHER AND/OR OBSTRUCTIONS TO VISIBILITY.

COZ001>005-013-030-031-280400-
...NORTHWEST COLORADO...

CITY           SKY/WX    TMP DP  RH WIND       PRES   REMARKS
CRAIG          FAIR      46  37  71 SE3       30.27R
HAYDEN         FAIR      45  34  65 E10       30.29R
MEEKER         FAIR      48  30  49 NE6       30.26R
RABBIT EARS PA NOT AVBL
STEAMBOAT SPGS NOT AVBL
WALDEN         NOT AVBL
$$

COZ006>008-011-280400-
...WEST CENTRAL VALLEYS...

CITY           SKY/WX    TMP DP  RH WIND       PRES   REMARKS
GRAND JUNCTION FAIR      63  26  24 NE13      30.17R
MONTROSE       FAIR      57  28  33 NE5       30.22R
EAGLE          FAIR      46  36  68 E5        30.32R
RIFLE          FAIR      57  29  34 E5        30.23R
DELTA          FAIR      63  26  24 N8        30.19R
NUCLA          FAIR      61  25  25 NE13G18   30.23R
$$

COZ017>023-064>068-280400-
...SOUTHWEST COLORADO...

CITY           SKY/WX    TMP DP  RH WIND       PRES   REMARKS
DURANGO        FAIR      59  13  16 W10       30.16R
CORTEZ         FAIR      62  15  16 NW7       30.16R
PAGOSA SPRINGS FAIR      54  17  23 W3        30.22R
TELLURIDE      MOCLDY    47  28  48 CALM      30.35R
WOLF CREEK PAS NOT AVBL
$$

COZ009-010-012-014-032>034-037-058>063-280400-
...CENTRAL COLORADO...

CITY           SKY/WX    TMP DP  RH WIND       PRES   REMARKS
ASPEN          MOCLDY    42  33  70 SE9       30.33R
BUENA VISTA    FAIR      43  29  56 NW20G25   30.30R
COPPER MTN     NOT AVBL
BERTHOUD PASS  NOT AVBL
COTTONWOOD PAS NOT AVBL
GUNNISON       FAIR      49  25  39 NW10      30.27R
KREMMLING      NOT AVBL
LEADVILLE      FAIR      30  27  88 N5        30.37R WCI  25
SALIDA         CLOUDY    50  31  47 N7G20     30.37R
SUNLIGHT       NOT AVBL
WILKERSON PASS NOT AVBL
$$

COZ069>075-280400-
...SAN LUIS VALLEY/SANGRE DE CRISTO MOUNTAINS...

CITY           SKY/WX    TMP DP  RH WIND       PRES   REMARKS
ALAMOSA        MOCLDY    53  37  54 SE8       30.21R
DEL NORTE      NOT AVBL
LA VETA PASS   NOT AVBL
SAGUACHE       NOT AVBL
$$

COZ035-036-038>040-280400-
...NORTHERN COLORADO FRONT RANGE...

CITY           SKY/WX    TMP DP  RH WIND       PRES   REMARKS
DENVER INTL AP FAIR      50  40  68 W9        30.22S
DMNS CITY PARK   N/A     48  41  75 E8        30.23S
AURORA         PTCLDY    47  42  81 W6        30.24R
FRONT RANGE AP PTCLDY    48  45  87 W9        30.22S
ERIE MUNI ARPT NOT AVBL
BOULDER MUN AP NOT AVBL
CENTENNIAL     FAIR      48  41  76 NW6       30.24R
BROOMFIELD     PTCLDY    50  41  71 CALM      30.24S
FORT COLLINS   FAIR      49  45  86 SW3       30.23
LONGMONT       NOT AVBL
$$

COZ041-046-047-076>085-087-088-280400-
...PIKES PEAK/PALMER DIVIDE AND SOUTHERN FOOTHILLS...

CITY           SKY/WX    TMP DP  RH WIND       PRES   REMARKS
COLO. SPRINGS  FAIR      50  39  66 NW9       30.27R
A. F. ACADEMY  FAIR      44  38  77 CALM      30.26R
SCHRIEVER AFB  MOCLDY    47  38  72 N8G17     30.26R
CHEYENNE MTN   FAIR      47  36  66 NW12      30.23R
ELLICOTT       MOCLDY   N/A N/A N/A N7        30.24R
FALCON         FAIR      44  37  77 NW5       30.28S
FORT CARSON    FAIR      48  40  71 NW8       30.25R
LIMON          FAIR      46  43  89 NW8       30.20R
MONUMENT HILL  NOT AVBL
CANON CITY     NOT AVBL
WALSENBURG     CLOUDY    48  46  93 CALM      30.29R
TRINIDAD       CLOUDY    49  42  77 N7        30.27R
$$

COZ042>045-048>051-090-091-280400-
...NORTHEAST COLORADO...

CITY           SKY/WX    TMP DP  RH WIND       PRES   REMARKS
GREELEY ARPT   MOCLDY    49  45  86 CALM      30.21R
AKRON          FAIR      48  39  71 NW6       30.18R
BURLINGTON     FAIR      51  49  92 NW6       30.13F
WRAY           FAIR      52  43  71 NW8       30.14R
YUMA           NOT AVBL
STERLING       NOT AVBL
HOLYOKE        NOT AVBL
FORT MORGAN    FAIR      50  38  63 W5        30.18F
$$

COZ086-089-092>099-280400-
...SOUTHEAST COLORADO...

CITY           SKY/WX    TMP DP  RH WIND       PRES   REMARKS
PUEBLO         CLOUDY    53  48  83 S5        30.23R
LA JUNTA       CLOUDY    52  48  86 SW7       30.21R
LAMAR          FAIR      52  49  89 NW5       30.16R
SPRINGFIELD      N/A     49  47  93 N12       30.16F
$$




USA.gov is the U.S. government's official web portal to all federal, state and local government web resources and services.